星链-30989 (STARLINK-30989 )

导读

STARLINK-30989是美国SpaceX公司星链(Starlink)星座中的一颗卫星,于2023年12月7日发射升空,属于星链二代Gen2部署阶段的卫星。星链项目旨在通过近地轨道的海量卫星,为全球提供高速低延迟的卫星互联网服务,覆盖偏远区域,并拓展至海事、航空等商业及特殊应用场景,该卫星的发射推进了星链星座的全球组网进程,进一步强化了星座服务覆盖能力,同时其大规模低轨卫星部署也引发了关于太空资源利用的全球讨论。

基本信息
目录编号:
58510
目录名称:
STARLINK-30989
国际标识:
2023-191C
轨道中心:
EARTH
卫星名称:
星链-30989
卫星全名:
星链-30989 (STARLINK-30989 )
卫星状态:
在轨 (已飞行1002 天)
发射日期:
2023-12-07 UTC
国别 :
美国 (US)
星等 :
--
轨道信息
数据来源 国际轨道数据 AOE轨道数据
星历时间 2026-09-04T11:56:57+0800
14小时前
查看轨道信息
2026-09-04T00:00:00+0800
1天前
查看轨道信息
半长轴 6861.193km 6861.19km
偏心率 0.000089 0.0001073
轨道倾角 42.998° 42.998°
近地点辐角 255.377° 217.244°
升交点赤经 175.765° 178.585°
平近点角 104.699° 281.625°
近地点 482.445km 482.316km
远地点 483.667km 483.79km
周期 94.267分钟 94.267分钟
每日圈数 15.27578 15.275789
详细信息
固有亮度:
5
最大亮度:
0.3
卫星平台:
Starlink v2.0 mini
覆盖范围:
全球
运营商:
太空探索技术公司
运营商所在国:
美国
制造商(研发单位):
太空探索技术公司
制造商所在国:
美国
使用方式:
暂无
卫星简介
星链(Starlink)计划是由太空探索技术公司(SpaceX)提出的一个巨型低轨卫星互联网星座项目,计划在2019年至2024年间在太空搭建由约1.2万颗卫星组成的“星链”网络,其中1584颗将部署在地球上空550千米处的近地轨道,并从2020年开始工作。该卫星仍在工作。
2D轨道图
3D轨道图
轨道高度分析图
轨道倾角分析图
轨道综合分析图
查看轨道综合分析图
交会数据列表
事件ID 空间交会对象 最接近时刻(TCA) 交会距离 交会风险概率(CRP) 交会风险指数(CRI) 操作
CDM_260906-202405-851006-289621
2026-09-06T
20:24:27+0000
0.393 km
远距离
2.688641E-4 高风险 0.84
CDM_260906-155305-851006-800421
2026-09-06T
15:53:01+0000
0.628 km
远距离
5.565153E-5 中风险 0.7
CDM_260906-212205-851006-800421
2026-09-06T
21:22:33+0000
0.630 km
远距离
5.518136E-5 中风险 0.7
CDM_260903-122205-851005-977423
OBJECT B (59774)
2026-09-03T
12:22:38+0000
2.991 km
极远距离
1.313966E-6 低风险 0.37
CDM_260906-215805-851006-289621
2026-09-06T
21:58:36+0000
2.827 km
极远距离
1.136957E-6 低风险 0.36
CDM_260906-185005-851006-289621
2026-09-06T
18:50:18+0000
2.940 km
极远距离
1.082091E-6 低风险 0.36
CDM_260906-063005-851006-470021
2026-09-06T
06:30:18+0000
2.834 km
极远距离
9.137074E-7 极低风险 0.34